Showing default

HULIANWANG DIGUI-89, 65997

Orbit data source: Space-Track

HULIANWANG DIGUI-89, 65997 is a payload satellite owned by Zhongguo Xingwang (CN) in LEO that was launched on Thu, 16 Oct 2025 UTC via a CHANG ZHENG 8A launch vehicle from the Wenchang Satellite Launch Center (WSC). Payload-class satellites include a variety of spacecraft equipped with specific instruments for various scientific and technological missions. These include communications satellites like Starlink; space stations such as the ISS; scientific satellites like the Hubble; Earth observation satellites from companies like Planet Labs, Umbra, and HawkEye 360; GPS; miniature CubeSats for education and research; and military/defense satellites.

Loading next visibility...
Identifier
65997, 2025-231C
Orbit
LEO
Country
Flag of CNCN / PRC
Related business
Manufacturer
CAST
Mission
Operational Civil Communications
Bus & Motor
XINGWANG C, Unknown motor
Mass
~700 kg wet, ~700 kg dry
Launch date (UTC)
2025-10-16 (8 months ago)
Launch vehicle
CHANG ZHENG 8A
Launch site
Wenchang Satellite Launch Center (WSC)
Object type
Payload
Rocket body
Debris
Shape & HBR
Box + 2 Pan, 1.9 m
Radar Cross Section
5.935 m², Large (>1 m²)

Expand to show TLE details & history
Last TLE update: 18 hours ago

TLE from 18 hours ago
0 HULIANWANG DIGUI-89
1 65997U 25231C   26171.23912545 -.00000107  00000-0  35729-4 0  9996
2 65997  49.9936 164.7526 0000897 251.5789 108.4986 13.29326897 33293
Epoch: 2026-06-20T05:44Z
TLE epoch observation values (Epoch: 2026-06-20T05:44:20.438Z)
Latitude
Longitude
170.21084°
Altitude
1,150.023 km
Speed
7.279 km/s
True Right ascension
10h 59m 00s
True Declination
0° 00' 00"
Sunlit
Object was in daylight at epoch
Visualization orbit readout
Latitude
Unknown
Longitude
Unknown
Altitude
Unknown
Speed
Unknown
Apparent Right ascension
Unknown
Apparent Declination
Unknown
Sunlit
N/A
Visualization observer readout
Local Sidereal Time
10:18:35
Azimuth
Unknown
Elevation
Unknown
Doppler factor
Unknown
Orbital elements
Apogee altitude
1,150.685 km
Perigee altitude
1,149.334 km
Semi-major axis
7,528.147 km
Eccentricity
0.00009
Inclination
49.9936°
RAAN
164.7526°
Arg. of periapsis
251.5789°
True anomaly
108.50835°
Mean anomaly
108.4986°
Eccentric anomaly
108.50347°
Mean motion
3.32285 °/min
Orbital period
108.34 mins
BSTAR
0.000035729
Loading maneuver chart data...
Computing Atmospheric mass density...
Loading historical data...
Loading historical data...
Loading historical data...
Loading historical data...
Loading historical data...
Loading historical data...
Loading historical data...

Documentation

Showing up to 5 results
|